Location: Keeble Observatory
(37.7625°N, 77.4755°W)
Time: 18:19:51
(UTC-04:00)

Daily predictions for brighter satellites

Satellite Brightness Start Highest point End
(mag) Time Altitude Azimuth Time Altitude Azimuth Time Altitude Azimuth
Cosmos 1605 Rocket 4.1 20:55:43 10° N 21:02:00 74° E 21:08:19 10° SSE
Cosmos 1741 Rocket 4.3 20:59:55 10° S 21:05:01 50° ESE 21:10:09 10° NNE
YAOGAN 6 3.5 21:05:11 10° SE 21:08:28 33° ENE 21:11:48 10° N
Cosmos 1818 4.2 21:03:49 10° NNW 21:09:02 45° NE 21:14:13 10° SE
ATLAS 5 CENTAUR R/B 1.7 21:05:26 10° SSW 21:10:01 80° ESE 21:15:00 10° NE
Spot 2 Rocket 4.2 21:05:26 10° S 21:10:23 57° W 21:15:23 10° NNW
Cosmos 1076 Rocket 4.2 21:14:18 10° SSE 21:18:15 35° E 21:22:13 10° NNE
Spot 1 4.0 21:15:35 10° SSE 21:19:36 64° ENE 21:23:47 10° N
Cosmos 1727 Rocket 4.1 21:14:06 10° S 21:20:25 89° E 21:26:48 10° N
Cosmos 2237 Rocket 3.3 21:22:52 10° NW 21:28:10 43° WSW 21:33:25 10° S
Cosmos 1939 Rocket 3.0 21:25:57 10° S 21:29:56 76° W 21:34:00 10° NNW
Cosmos 1340 Rocket 3.3 21:27:57 10° SSW 21:31:56 64° W 21:35:59 10° N
SJ-11-01 4.5 21:28:22 10° S 21:33:06 76° WSW 21:37:52 10° NNW
CZ-4B DEB 2.5 21:30:56 10° SSE 21:33:53 87° ENE 21:36:52 10° N
Cosmos 2221 2.6 21:29:46 10° N 21:34:09 68° E 21:38:30 10° SSE
Envisat 3.6 21:30:04 10° S 21:35:02 56° W 21:40:03 10° NNW
Tiangong 1 2.8 21:35:53 10° WNW 21:38:23 28° N 21:40:52 10° ENE
Meteor 1-29 3.2 21:36:05 10° N 21:39:30 72° WNW 21:42:56 10° SSW
Cosmos 1674 2.6 21:39:09 10° S 21:42:54 73° E 21:46:39 10° N
MetOp-A 4.5 21:40:22 14° SE 21:44:48 51° ENE 21:49:58 10° N
Cosmos 2208 Rocket 4.1 21:39:41 10° NNW 21:45:02 73° ENE 21:49:33 15° SSE
SAR-Lupe-4 3.8 21:42:59 10° S 21:46:33 68° WSW 21:50:07 10° NNW
ARGOS 3.8 21:42:43 15° SE 21:46:46 41° ENE 21:51:49 10° N
Okean 3 Rocket 3.8 21:42:18 10° SSW 21:46:48 75° W 21:51:17 10° N
Cosmos 2016 Rocket 4.4 21:42:23 10° N 21:48:22 46° ENE 21:52:55 17° SE
CZ-3B R/B 3.6 21:46:13 10° SW 21:48:53 86° SE 21:57:11 10° NE
SPOT 5 3.7 21:47:02 17° SE 21:50:15 37° ENE 21:54:55 10° N
GPS 2-05 Rocket1 3.7 21:48:34 10° SW 21:51:08 24° SSE 21:51:24 24° SSE
Lacrosse 5 2.9 21:46:50 10° NNW 21:51:31 36° NE 21:55:19 15° ESE
SL-16 R/B 2.5 21:47:39 10° NNW 21:53:17 67° WSW 21:58:21 13° S
Cosmos 1908 3.1 21:49:28 10° N 21:53:21 84° E 21:56:19 16° S
Cosmos 1570 Rocket 4.1 21:51:36 10° NNW 21:56:55 78° WSW 22:01:16 15° S
SPOT 1/Viking Rocket 4.5 21:54:30 18° ESE 21:57:32 33° ENE 22:02:07 10° N
Cosmos 1766 Rocket 3.5 21:54:51 12° S 21:58:53 69° E 22:03:12 10° NNE
Atlas Centaur 2 2.7 21:57:21 10° WSW 21:59:48 17° SSW 22:00:27 16° S
KORONAS-FOTON 3.7 21:56:38 12° S 22:00:06 79° E 22:03:54 10° N
Abrixas rocket 4.4 22:00:58 10° NNW 22:03:30 20° NNE 22:06:01 10° ENE
Cosmos 1242 Rocket 2.7 22:01:03 10° NNW 22:04:46 73° W 22:07:16 19° S
OAO 1 Rocket 4.4 22:00:29 10° WSW 22:05:47 65° S 22:10:03 16° E
Cosmos 1328 Rocket 4.4 22:02:14 10° NNE 22:06:12 34° ENE 22:07:52 25° ESE
USA 245 3.4 22:07:27 31° SE 22:08:48 51° ENE 22:12:47 10° N
YAOGAN 11 4.3 22:08:19 25° SSE 22:10:50 61° ENE 22:15:20 10° N
Cosmos 1151 Rocket 4.5 22:09:07 10° NNE 22:12:36 23° ENE 22:13:43 20° E
Cosmos 1743 Rocket 3.9 22:13:15 28° SE 22:15:01 44° E 22:19:08 10° NNE
H-2A R/B 4.0 22:13:53 14° E 22:15:08 15° ENE 22:17:35 10° NNE
Delta 2 Rocket 4.3 22:11:04 10° SW 22:16:34 49° SSE 22:21:09 15° E
USA 234 3.2 22:10:48 10° NE 22:17:21 75° SE 22:23:53 10° SW
Milstar 3 Cent rocket 4.2 22:10:48 10° WSW 22:17:42 37° S 22:25:01 21° SE
Cosmos 2228 Rocket 3.5 22:15:56 10° N 22:20:23 47° E 22:22:04 32° SE
NOAA 11 4.4 22:16:47 17° S 22:21:00 67° WSW 22:26:25 10° NNW
Cosmos 468 Rocket 3.9 22:18:20 10° NNW 22:23:29 79° ENE 22:26:03 30° SSE
SL-08 RB Rocket 3.7 22:21:53 30° SSE 22:24:05 74° ENE 22:28:42 10° N
Terra 3.0 22:24:00 23° E 22:25:34 28° ENE 22:29:36 10° NNE
ERS-1 Rocket 3.7 22:21:46 15° S 22:25:44 50° W 22:30:39 10° NNW
Cosmos 1459 Rocket 4.4 22:20:47 10° NNW 22:26:56 60° W 22:32:18 13° SSW
H-2A ROCKET BODY 3.3 22:27:41 10° SSW 22:31:22 30° SSE 22:42:28 10° E
Nimbus 7 Rocket 4.3 22:26:57 10° NNE 22:32:59 78° ESE 22:37:30 18° S
Cosmos 332 Rocket 3.7 22:30:08 10° NNW 22:35:04 84° ENE 22:37:02 37° SSE
Cosmos 2123 Rocket 4.0 22:36:04 17° S 22:41:01 81° W 22:47:15 10° N
H-2A R/B 2.1 22:39:05 33° SSE 22:41:32 85° ENE 22:46:59 10° NNW
Cosmos 220 Rocket 4.3 22:39:19 17° SSW 22:42:42 69° WNW 22:47:06 10° NNE
Meteor 2-10 4.2 22:38:14 10° N 22:43:53 87° ENE 22:46:31 34° S
Cosmos 1626 2.9 22:44:38 36° ENE 22:44:38 36° ENE 22:47:43 10° NNE
Cosmos 2058 3.1 22:44:53 48° ESE 22:45:20 51° E 22:49:26 10° NNE
Cosmos 2263 Rocket 2.1 22:46:57 30° S 22:49:45 69° ESE 22:55:18 10° NNE
Cosmos 1726 3.0 22:47:32 10° NNW 22:51:01 42° W 22:52:04 33° SW
Cosmos 1300 3.2 22:51:01 10° NNW 22:54:46 54° W 22:55:37 43° SW
SL-14 R/B 4.1 22:53:30 26° SW 22:55:22 46° W 22:59:12 10° N
RESURS DK-1 2.9 22:52:01 10° NW 22:56:03 49° WSW 22:56:54 41° SSW
EO 1 Delta rocket 4.2 22:55:37 34° SSW 22:57:31 60° W 23:02:05 10° NNW
Cosmos 1725 Rocket 4.4 22:59:58 10° NNW 23:06:06 60° W 23:09:19 28° SSW
ERBS 2.7 23:03:35 10° NW 23:06:28 61° NNW 23:06:28 61° NNW
deb Chang Zheng 4 3.7 23:05:17 10° NNE 23:09:31 57° E 23:09:31 57° E
Cosmos 1356 3.9 23:11:37 55° W 23:11:37 55° W 23:15:04 10° N
Cosmos 2151 3.3 23:11:00 48° SW 23:11:58 63° W 23:16:15 10° N
Tiangong 1 3.0 23:11:44 10° WNW 23:13:24 26° NNW 23:13:24 26° NNW
Cosmos 1354 Rocket 3.9 23:16:06 51° SSW 23:17:29 87° ESE 23:22:44 10° NNE
Cosmos 1844 Rocket 4.0 23:24:43 24° E 23:24:43 24° E 23:28:07 10° NE
Cosmos 371 Rocket 4.3 23:20:24 10° NW 23:24:49 37° WSW 23:25:49 33° SW
CZ-4C R/B 2.8 23:28:14 36° E 23:28:14 36° E 23:32:29 10° NE
Cosmos 1666 Rocket 4.5 23:28:28 38° ENE 23:28:28 38° ENE 23:31:55 10° NNE
Cosmos 1455 2.7 23:24:21 10° N 23:27:33 57° NNE 23:27:33 57° NNE
CARTOSAT-1 3.8 23:29:27 57° WSW 23:29:39 57° W 23:33:54 10° NNW
Cosmos 1464 Rocket 4.1 23:25:32 10° N 23:31:36 57° E 23:32:45 50° ESE
Cosmos 841 Rocket 3.8 23:27:58 10° NNW 23:33:05 55° WSW 23:33:53 49° SW
Lacrosse 5 2.8 23:29:52 10° WNW 23:34:27 35° WSW 23:34:30 35° SW
Cosmos 1763 Rocket 4.2 23:29:52 10° NW 23:34:35 39° WSW 23:35:29 36° SW
Cosmos 1943 3.5 23:30:12 10° NNW 23:35:43 54° WSW 23:36:45 47° SW
SL-19 R/B 4.4 23:30:33 10° N 23:35:54 70° WNW 23:37:45 42° SW
Cosmos 1805 Rocket 3.6 23:39:13 73° NNE 23:39:13 73° NNE 23:43:10 10° N
Cosmos 1869 4.4 23:35:04 10° N 23:37:55 37° NE 23:37:55 37° NE
Abrixas rocket 4.4 23:37:17 10° WNW 23:38:41 23° WNW 23:38:41 23° WNW
Cosmos 1633 Rocket 3.9 23:44:55 41° NE 23:44:55 41° NE 23:48:09 10° NNE
CZ-4C R/B 3.8 23:46:43 61° NNE 23:46:43 61° NNE 23:50:33 10° N
H-2A R/B 2.8 23:51:01 43° W 23:51:01 43° W 23:54:52 10° NNW
SME Rocket 3.4 23:52:50 61° N 23:52:50 61° N 23:56:35 10° NNW
